Precipitable_Water
0.48 0.48 0.48 0.48 0.49 0.49 0.49 0.48 0.49 0.47 0.47 0.45 0.42 0.42 0.42 0.43 0.46 0.48 0.53 0.57 0.59 0.60 0.61 0.63 0.66 0.68 0.69 0.67 0.66 0.66 0.65 0.67 0.71 0.80 0.84 0.88 0.90 0.96 1.05 1.19 1.26 1.20
0.47 0.47 0.47 0.48 0.48 0.49 0.50 0.50 0.49 0.48 0.48 0.48 0.47 0.45 0.45 0.44 0.45 0.45 0.47 0.50 0.55 0.57 0.60 0.62 0.65 0.69 0.71 0.71 0.70 0.67 0.65 0.64 0.64 0.71 0.74 0.80 0.88 1.00 1.06 1.07 1.09 1.18
0.47 0.47 0.47 0.47 0.48 0.48 0.48 0.50 0.50 0.49 0.49 0.50 0.51 0.49 0.47 0.46 0.45 0.46 0.46 0.48 0.50 0.54 0.58 0.62 0.64 0.67 0.70 0.71 0.72 0.72 0.69 0.66 0.64 0.67 0.69 0.71 0.79 0.81 0.88 0.92 0.96 1.02
0.48 0.48 0.48 0.49 0.49 0.49 0.50 0.49 0.49 0.49 0.49 0.49 0.50 0.51 0.50 0.47 0.46 0.46 0.46 0.46 0.48 0.51 0.54 0.58 0.60 0.63 0.66 0.72 0.74 0.73 0.73 0.72 0.70 0.69 0.66 0.70 0.75 0.80 0.82 0.88 0.94 0.99
0.50 0.50 0.51 0.50 0.51 0.51 0.50 0.48 0.47 0.48 0.48 0.48 0.49 0.50 0.49 0.48 0.47 0.46 0.46 0.46 0.46 0.48 0.52 0.55 0.59 0.61 0.64 0.67 0.70 0.72 0.73 0.72 0.73 0.72 0.68 0.66 0.68 0.71 0.79 0.85 0.88 0.90
0.51 0.51 0.51 0.51 0.52 0.51 0.49 0.48 0.49 0.48 0.48 0.48 0.48 0.48 0.47 0.47 0.48 0.47 0.47 0.46 0.46 0.46 0.49 0.54 0.56 0.60 0.63 0.64 0.66 0.68 0.71 0.72 0.73 0.73 0.71 0.68 0.66 0.69 0.72 0.76 0.76 0.81
0.51 0.52 0.52 0.53 0.52 0.51 0.49 0.49 0.49 0.49 0.48 0.48 0.47 0.45 0.46 0.46 0.46 0.47 0.48 0.48 0.47 0.47 0.48 0.52 0.55 0.58 0.62 0.63 0.64 0.66 0.70 0.70 0.71 0.72 0.70 0.70 0.69 0.67 0.68 0.73 0.77 0.77
0.51 0.52 0.52 0.53 0.51 0.50 0.49 0.49 0.49 0.50 0.49 0.47 0.44 0.45 0.46 0.45 0.45 0.47 0.48 0.48 0.48 0.48 0.48 0.51 0.55 0.57 0.60 0.63 0.62 0.64 0.67 0.71 0.72 0.71 0.71 0.71 0.72 0.68 0.66 0.64 0.68 0.72
0.52 0.51 0.52 0.51 0.50 0.49 0.48 0.49 0.50 0.50 0.49 0.46 0.45 0.45 0.45 0.45 0.46 0.47 0.48 0.49 0.48 0.49 0.49 0.50 0.53 0.56 0.60 0.62 0.62 0.63 0.64 0.67 0.71 0.72 0.71 0.71 0.71 0.71 0.71 0.68 0.64 0.65
0.51 0.52 0.51 0.51 0.49 0.50 0.50 0.50 0.50 0.49 0.49 0.47 0.47 0.46 0.45 0.46 0.47 0.47 0.48 0.48 0.48 0.48 0.49 0.50 0.52 0.55 0.57 0.60 0.62 0.63 0.63 0.64 0.68 0.71 0.73 0.73 0.73 0.73 0.75 0.73 0.68 0.62
0.52 0.52 0.51 0.50 0.50 0.50 0.50 0.50 0.49 0.48 0.48 0.47 0.47 0.47 0.48 0.48 0.48 0.49 0.48 0.48 0.47 0.47 0.48 0.49 0.51 0.54 0.56 0.57 0.60 0.63 0.64 0.65 0.66 0.69 0.72 0.74 0.75 0.75 0.76 0.77 0.73 0.67
0.51 0.51 0.51 0.51 0.51 0.50 0.50 0.49 0.49 0.48 0.48 0.49 0.50 0.49 0.49 0.50 0.49 0.49 0.50 0.49 0.49 0.49 0.49 0.48 0.50 0.52 0.54 0.56 0.58 0.61 0.63 0.64 0.66 0.67 0.69 0.73 0.76 0.76 0.76 0.78 0.77 0.74
0.50 0.50 0.51 0.51 0.51 0.50 0.50 0.50 0.49 0.50 0.49 0.49 0.51 0.50 0.50 0.50 0.51 0.51 0.52 0.52 0.52 0.52 0.50 0.49 0.49 0.49 0.51 0.54 0.56 0.59 0.61 0.63 0.64 0.66 0.67 0.70 0.74 0.77 0.77 0.78 0.80 0.78
0.51 0.51 0.51 0.51 0.51 0.50 0.50 0.51 0.50 0.50 0.49 0.50 0.51 0.50 0.50 0.51 0.51 0.52 0.54 0.55 0.55 0.55 0.54 0.53 0.51 0.50 0.49 0.50 0.54 0.56 0.59 0.60 0.63 0.64 0.65 0.67 0.72 0.77 0.78 0.78 0.79 0.80
0.50 0.51 0.51 0.51 0.51 0.51 0.50 0.49 0.49 0.49 0.49 0.50 0.51 0.52 0.53 0.53 0.54 0.54 0.54 0.54 0.56 0.56 0.56 0.56 0.53 0.52 0.51 0.50 0.49 0.52 0.56 0.58 0.60 0.61 0.62 0.64 0.68 0.74 0.78 0.79 0.80 0.81
0.49 0.49 0.50 0.50 0.51 0.50 0.49 0.48 0.48 0.49 0.50 0.50 0.52 0.53 0.54 0.55 0.55 0.55 0.55 0.54 0.54 0.55 0.56 0.56 0.55 0.55 0.54 0.55 0.54 0.52 0.53 0.56 0.58 0.59 0.60 0.62 0.64 0.69 0.73 0.77 0.80 0.81
0.47 0.48 0.49 0.50 0.50 0.49 0.48 0.48 0.49 0.50 0.51 0.52 0.53 0.54 0.55 0.55 0.55 0.54 0.54 0.55 0.54 0.54 0.55 0.56 0.56 0.56 0.56 0.56 0.56 0.57 0.55 0.54 0.55 0.57 0.59 0.60 0.62 0.66 0.70 0.73 0.78 0.81
0.47 0.48 0.50 0.50 0.49 0.48 0.48 0.48 0.49 0.50 0.50 0.52 0.53 0.54 0.55 0.56 0.55 0.54 0.55 0.55 0.55 0.54 0.54 0.54 0.55 0.57 0.57 0.57 0.57 0.57 0.57 0.56 0.54 0.54 0.57 0.59 0.61 0.65 0.70 0.74 0.76 0.80
0.47 0.49 0.49 0.48 0.48 0.48 0.47 0.47 0.48 0.48 0.50 0.51 0.53 0.55 0.56 0.54 0.55 0.55 0.55 0.55 0.54 0.52 0.52 0.53 0.54 0.56 0.56 0.57 0.58 0.58 0.58 0.57 0.55 0.53 0.54 0.56 0.60 0.65 0.71 0.74 0.76 0.79
0.48 0.48 0.47 0.47 0.47 0.46 0.45 0.45 0.45 0.46 0.49 0.52 0.53 0.54 0.54 0.54 0.55 0.55 0.55 0.54 0.53 0.52 0.51 0.52 0.52 0.54 0.56 0.56 0.58 0.58 0.58 0.57 0.55 0.54 0.53 0.54 0.57 0.61 0.69 0.75 0.77 0.79
0.47 0.46 0.46 0.46 0.46 0.45 0.44 0.44 0.45 0.48 0.50 0.52 0.53 0.53 0.53 0.53 0.54 0.54 0.54 0.54 0.53 0.52 0.51 0.51 0.52 0.54 0.55 0.56 0.57 0.57 0.58 0.58 0.56 0.54 0.53 0.53 0.57 0.60 0.64 0.72 0.78 0.81
0.46 0.45 0.45 0.45 0.44 0.43 0.43 0.44 0.46 0.49 0.51 0.53 0.54 0.54 0.55 0.55 0.55 0.55 0.53 0.53 0.53 0.53 0.52 0.51 0.53 0.55 0.56 0.56 0.57 0.57 0.58 0.58 0.57 0.54 0.52 0.53 0.56 0.60 0.63 0.69 0.76 0.82
0.46 0.45 0.44 0.44 0.43 0.43 0.43 0.44 0.47 0.50 0.52 0.54 0.53 0.53 0.53 0.53 0.53 0.52 0.52 0.52 0.52 0.53 0.53 0.52 0.54 0.56 0.57 0.57 0.57 0.57 0.57 0.57 0.57 0.55 0.53 0.52 0.54 0.59 0.64 0.68 0.74 0.80
0.46 0.45 0.44 0.44 0.43 0.42 0.43 0.46 0.50 0.52 0.52 0.54 0.53 0.52 0.52 0.52 0.52 0.51 0.52 0.53 0.53 0.54 0.55 0.54 0.55 0.58 0.59 0.58 0.57 0.56 0.57 0.58 0.58 0.56 0.54 0.53 0.55 0.59 0.63 0.68 0.72 0.77
0.46 0.45 0.45 0.43 0.42 0.43 0.45 0.47 0.51 0.51 0.53 0.54 0.54 0.54 0.53 0.53 0.52 0.52 0.52 0.54 0.56 0.56 0.57 0.57 0.57 0.58 0.60 0.59 0.58 0.57 0.58 0.59 0.59 0.59 0.56 0.55 0.56 0.57 0.63 0.68 0.72 0.77
0.44 0.44 0.45 0.45 0.43 0.43 0.46 0.50 0.53 0.53 0.53 0.54 0.54 0.54 0.53 0.53 0.53 0.54 0.54 0.56 0.58 0.58 0.58 0.59 0.58 0.59 0.61 0.61 0.59 0.58 0.59 0.61 0.62 0.59 0.57 0.56 0.58 0.59 0.61 0.67 0.72 0.77
Wind_Speed
26 26 26 26 26 26 27 27 27 27 28 29 29 30 31 32 33 33 34 34 35 35 36 36 36 37 37 38 39 41 42 43 43 43 43 43 43 43 43 44 45 45
26 26 27 27 27 27 27 28 28 28 29 29 30 31 32 32 33 34 35 35 35 36 36 37 37 37 37 37 38 39 41 43 44 44 44 44 44 44 44 44 45 46
27 27 27 28 28 28 28 28 29 29 30 30 30 31 32 33 34 35 35 36 36 36 37 37 38 38 38 38 38 39 40 41 43 45 45 45 45 45 45 45 45 46
27 27 28 28 29 29 29 29 29 30 30 31 31 32 32 33 34 35 35 36 36 37 37 38 38 39 39 39 39 39 40 41 42 43 45 46 46 46 46 46 46 46
27 28 28 29 29 30 30 30 30 31 31 32 32 32 33 33 34 34 35 36 36 37 37 38 38 39 39 39 40 40 40 40 41 42 44 46 47 47 47 47 48 48
28 28 29 30 30 30 31 31 31 32 32 32 32 33 33 34 34 34 35 36 36 37 37 38 38 39 39 40 40 40 40 41 41 42 43 45 47 47 48 48 49 49
29 29 30 31 31 31 32 32 32 32 33 33 33 33 34 34 35 35 35 36 37 37 38 38 39 39 39 40 40 41 41 42 42 42 43 44 46 48 48 49 49 50
30 30 31 31 32 32 33 33 32 32 33 33 33 33 34 35 35 35 36 36 37 38 38 39 39 40 40 41 41 42 42 42 42 43 44 44 45 47 48 49 50 50
30 31 32 32 33 33 33 33 33 33 33 34 34 34 34 35 35 36 36 37 37 38 39 40 41 41 42 42 42 43 43 43 43 44 44 45 45 46 47 49 50 50
31 32 32 33 33 34 34 33 34 34 34 34 34 34 35 35 35 36 37 37 38 39 40 41 42 42 43 43 43 44 44 44 44 44 45 45 46 46 46 48 50 51
32 32 33 33 34 34 34 34 34 34 34 34 34 35 35 36 36 37 37 38 39 40 40 41 42 43 44 44 45 45 45 45 45 46 46 46 46 46 47 47 49 50
32 33 33 34 34 34 34 34 34 34 34 35 35 36 36 37 37 38 38 39 40 41 41 42 43 44 45 45 46 46 46 46 46 46 47 47 47 47 47 47 48 49
32 33 34 34 34 34 34 34 35 35 35 36 36 37 37 38 38 38 39 40 40 41 42 43 44 45 45 46 46 46 46 46 46 46 47 48 48 48 47 48 48 49
32 33 33 34 34 34 34 35 35 35 36 36 37 37 38 38 38 39 39 40 41 42 42 43 44 44 45 46 46 46 46 46 46 46 47 47 48 48 48 48 48 49
32 33 33 33 34 34 34 35 35 36 36 37 38 38 38 38 39 39 40 40 41 42 43 43 44 44 45 46 46 46 46 46 46 46 47 47 47 48 48 48 48 49
32 32 33 33 34 34 35 35 36 36 37 38 38 38 38 39 39 40 40 41 42 43 43 44 44 45 46 46 46 46 46 46 45 45 46 46 47 47 48 48 48 48
32 32 33 33 34 34 35 35 36 36 37 38 38 38 39 39 40 40 41 42 42 43 44 44 45 46 46 47 47 47 47 47 46 45 45 45 46 46 47 47 47 48
31 32 32 33 33 34 34 35 35 36 37 37 38 38 39 40 40 41 42 42 43 44 44 45 45 46 47 47 47 48 48 48 47 46 45 45 45 45 46 46 46 47
31 31 32 33 33 33 34 34 35 36 36 37 38 39 39 40 41 42 42 43 43 44 45 45 46 46 47 47 48 48 48 48 48 48 47 46 45 45 44 45 45 46
31 31 32 32 33 33 34 34 35 36 36 37 38 39 40 41 42 43 43 43 44 44 45 46 46 47 47 47 47 48 48 49 48 48 48 47 46 46 45 44 45 45
30 31 31 32 32 32 33 34 34 35 36 37 38 39 40 41 42 42 43 44 44 44 45 45 46 46 46 47 47 47 48 48 49 49 48 48 47 47 46 45 44 45
30 31 31 31 31 32 33 33 34 35 36 37 37 38 39 40 41 42 43 43 44 44 44 44 44 44 45 46 46 47 47 47 48 48 48 48 47 47 47 46 45 45
30 30 30 30 31 32 32 33 34 35 35 36 37 37 38 39 40 41 42 42 43 43 43 42 42 42 43 44 45 46 46 47 47 48 48 48 48 47 46 46 46 46
29 29 30 30 31 31 32 33 34 35 35 35 36 37 38 39 39 40 40 41 41 41 41 41 41 40 41 42 43 45 46 46 46 46 47 47 47 47 46 46 47 47
28 29 29 29 30 31 31 32 33 34 34 34 34 36 37 37 38 38 38 38 38 38 38 39 39 38 39 41 42 43 45 45 44 45 46 46 46 46 46 45 46 47
27 28 28 28 29 30 30 31 32 33 32 33 34 35 36 36 36 36 36 35 34 34 35 35 36 36 36 39 41 42 43 43 43 43 44 45 45 45 44 45 45 46
Wind_Direction
274 274 275 276 276 276 276 276 275 274 273 271 269 268 267 267 265 263 261 260 259 258 257 256 254 252 251 249 248 247 246 245 244 244 244 243 242 240 238 237 235 236
274 273 274 275 276 276 276 276 276 275 274 272 271 269 268 267 266 264 263 261 260 259 258 257 255 253 252 251 249 248 247 246 244 244 244 243 242 240 239 238 238 238
273 273 274 275 276 276 277 277 277 276 275 274 272 271 269 267 266 264 263 262 261 260 259 257 256 255 253 252 251 249 248 247 245 244 244 243 242 241 240 239 239 238
273 273 274 275 275 276 277 277 277 277 276 275 274 273 271 269 266 264 263 262 261 260 259 258 257 255 254 253 252 251 249 248 246 245 244 243 243 242 241 240 239 238
273 274 274 275 276 277 277 278 278 278 277 276 275 274 272 270 267 265 263 261 261 260 260 258 257 256 255 253 252 251 250 249 247 246 244 243 242 242 242 241 240 239
274 275 275 276 277 277 278 278 278 278 277 276 275 274 272 270 268 266 264 262 261 260 259 258 257 256 255 253 252 251 251 249 248 246 245 244 243 242 242 242 240 239
275 276 276 277 277 277 278 278 278 277 277 276 274 273 272 271 269 267 265 263 262 260 259 258 257 256 255 254 252 252 251 250 249 247 246 245 244 242 242 242 241 240
276 276 277 277 277 278 278 278 277 276 276 275 274 273 271 270 269 268 266 264 263 261 260 259 257 256 255 254 253 252 251 250 249 248 246 245 245 243 242 242 241 241
277 277 278 278 278 279 279 278 277 276 276 275 274 273 271 270 269 268 266 265 263 262 260 259 258 257 256 255 254 252 251 250 249 248 247 246 245 244 243 242 241 241
277 278 278 279 279 279 279 278 278 277 276 275 274 273 272 270 269 268 267 266 264 263 260 259 258 257 256 255 254 253 252 251 250 249 248 246 245 244 243 242 241 240
277 278 279 279 279 279 279 279 278 278 276 275 274 273 272 271 270 269 268 266 265 264 262 260 258 257 256 255 254 254 253 252 250 249 248 247 245 244 243 242 242 240
278 278 279 280 280 279 279 279 278 277 276 275 274 273 272 271 270 269 268 267 267 265 263 261 259 257 256 255 254 253 253 252 251 249 248 247 246 245 243 243 242 241
279 279 280 280 280 280 280 279 278 277 276 275 275 274 273 271 270 269 268 268 268 267 265 263 261 258 256 255 254 253 252 252 251 249 248 247 246 244 243 243 242 241
280 281 281 281 281 281 280 279 278 276 276 276 276 275 274 272 271 270 269 268 268 267 266 264 262 259 257 255 254 252 251 251 250 249 248 247 246 244 243 242 241 240
282 282 282 281 281 281 281 280 278 277 277 277 277 276 275 273 272 271 269 269 268 267 266 264 262 260 258 256 254 253 251 250 249 249 247 246 245 244 243 242 241 240
283 282 282 282 281 281 281 280 279 278 278 278 278 277 275 274 273 271 270 269 268 267 266 264 262 260 258 256 255 253 251 250 248 247 246 245 244 243 242 240 240 239
283 283 282 282 282 282 281 281 280 280 279 279 278 277 276 274 273 272 271 270 269 268 266 264 262 260 258 256 254 252 251 249 247 246 245 244 243 242 241 240 239 238
284 284 283 283 283 283 283 282 282 281 281 280 279 278 277 276 274 273 272 271 270 268 267 264 262 260 258 256 253 251 250 248 247 245 244 243 242 241 240 239 238 237
285 285 285 285 285 284 284 284 284 284 283 282 281 280 278 277 276 274 273 272 271 269 267 265 262 260 258 256 253 251 248 246 246 244 242 242 241 240 239 238 237 237
287 287 286 286 286 286 286 287 287 286 286 284 283 282 280 279 278 276 275 274 272 270 268 265 263 260 258 255 253 250 247 245 244 243 241 241 240 239 238 237 237 236
288 288 288 287 287 288 289 289 289 289 288 286 285 283 282 281 280 278 277 275 273 272 269 266 263 261 258 255 251 248 245 243 242 242 240 239 239 238 236 236 236 236
290 289 289 289 289 290 291 291 292 292 290 289 287 285 283 282 281 279 277 276 275 273 270 267 264 260 257 254 250 246 244 242 241 240 239 238 237 237 235 234 234 234
291 291 290 290 291 292 292 293 294 293 292 290 288 286 285 284 282 280 279 277 275 273 270 267 264 260 257 253 248 244 242 241 239 239 238 237 235 235 235 233 232 232
292 292 291 292 293 293 294 295 296 295 294 292 289 288 287 286 285 283 281 278 275 272 269 266 263 260 256 251 247 242 240 239 238 237 237 236 234 234 234 233 231 231
293 293 293 293 294 295 296 297 298 297 296 294 292 291 290 289 287 285 282 279 275 271 268 265 263 260 256 250 245 241 238 237 237 236 235 235 234 232 232 231 230 230
294 294 293 294 295 297 298 299 300 299 298 297 297 295 293 292 290 287 284 281 276 271 268 265 264 261 255 247 243 239 236 236 236 235 234 233 232 231 230 229 229 229